Temp
5 5 5 5 5 5 5 5 5 6 6 5 5 5 5 5 5 5 6 6 7 7 7 8 8 8 8 9 9 9 9 9 8 8 7 7 7 6 6 6 6 6 6 6 6
5 5 5 5 5 5 5 5 6 5 5 5 5 4 5 5 5 5 6 6 7 7 8 8 8 9 8 8 8 8 9 8 8 7 7 7 7 6 6 6 6 6 6 6 6
5 5 5 5 5 5 5 5 5 5 5 5 5 5 5 5 5 5 6 6 7 7 8 8 8 8 9 9 9 8 8 8 7 7 7 7 6 7 7 7 6 6 6 7 7
5 5 5 5 5 5 5 5 5 4 5 5 5 5 5 5 5 6 6 6 7 7 7 8 8 8 8 8 8 8 8 8 8 7 7 7 7 7 7 7 7 6 6 6 6
5 5 5 5 5 5 5 4 4 4 5 5 5 5 5 5 6 6 6 6 7 7 7 8 8 8 8 8 8 8 8 7 7 7 7 7 7 7 7 7 7 7 6 6 6
5 5 5 5 5 5 4 4 4 4 4 5 5 5 5 5 6 6 6 6 7 7 7 7 8 8 8 8 8 8 8 8 7 7 7 7 7 7 7 7 7 7 6 6 6
5 5 5 5 5 4 4 4 4 4 4 5 5 5 5 5 6 6 6 6 6 7 7 7 8 8 8 8 8 8 8 7 8 7 8 8 7 7 7 7 7 7 7 6 6
4 4 4 4 4 4 4 3 3 4 4 5 5 5 5 5 6 6 6 6 7 7 7 7 8 8 8 8 8 7 8 9 7 7 8 7 9 7 7 7 7 7 7 7 6
4 4 4 4 4 4 4 3 4 4 5 5 5 5 5 6 6 7 7 7 7 7 7 8 8 8 8 8 8 8 9 8 7 7 7 7 8 7 8 8 7 7 7 7 7
3 4 4 4 4 4 4 4 4 5 5 5 5 5 6 6 7 7 7 7 7 7 7 7 8 8 8 9 10 8 8 8 7 7 7 7 7 8 8 8 7 7 7 7 7
3 4 4 4 4 4 4 4 4 4 5 5 6 6 6 7 7 7 7 7 7 7 7 8 8 7 7 8 8 7 7 7 6 7 6 6 6 7 8 8 8 7 7 7 7
3 3 4 4 4 4 4 5 5 5 5 5 6 6 7 7 7 8 8 7 7 7 8 7 7 7 7 7 7 7 6 6 5 6 6 6 6 7 7 7 7 7 7 7 6
3 3 4 4 4 4 5 5 5 6 5 5 6 6 7 6 7 7 7 7 7 7 7 7 6 6 6 6 6 6 6 5 5 5 6 6 6 6 6 6 6 6 6 6 5
3 3 4 4 4 5 5 5 6 6 5 5 6 6 6 6 7 7 7 7 7 6 6 6 6 5 5 5 6 6 5 5 5 5 8 6 10 5 6 6 5 5 5 4 4
3 3 4 4 4 5 5 5 6 6 7 5 6 5 6 6 6 6 6 6 7 6 6 6 5 5 5 5 5 4 5 5 5 5 5 6 8 6 5 5 3 4 4 3 3
3 4 4 4 4 5 5 5 6 6 5 4 5 5 5 6 6 6 6 6 6 6 6 5 5 5 5 5 5 5 5 5 5 5 7 5 6 6 5 3 3 3 3 3 3
3 4 4 4 5 5 5 5 5 6 5 4 4 5 5 5 5 5 5 6 5 5 5 4 4 4 4 4 4 4 5 7 6 7 7 4 5 4 3 4 3 3 3 2 2
3 4 4 5 5 5 5 5 5 4 4 5 5 5 5 5 5 5 5 4 5 5 4 5 5 4 4 4 4 4 4 5 5 6 7 4 6 4 3 3 3 2 2 2 2
4 4 4 5 4 4 4 5 4 4 5 5 4 4 4 4 4 4 4 4 4 5 4 4 4 4 4 3 4 3 3 3 3 2 3 5 4 3 2 2 2 2 1 1 1
4 4 4 4 4 4 4 5 5 5 5 5 5 5 4 4 4 4 3 3 3 4 4 4 3 3 3 3 3 3 3 3 3 3 4 6 5 6 2 1 1 1 1 -0 -0
4 4 4 4 4 4 4 5 5 5 5 4 5 4 4 4 4 4 3 3 3 3 4 4 3 3 3 2 2 2 2 2 2 2 4 4 5 3 2 1 1 0 -0 -0 -0
4 4 4 4 4 4 5 5 5 4 4 4 4 4 4 4 4 4 3 3 3 3 3 3 3 3 2 3 2 2 1 1 2 2 1 -0 2 1 1 1 -0 -1 -2 -1 -2
3 4 4 4 4 4 5 5 5 4 4 4 4 4 4 4 4 3 3 3 3 3 3 3 3 3 3 2 1 1 0 1 0 -1 -0 0 2 1 0 -0 -1 -2 -1 -2 -2
3 3 4 4 4 4 5 4 4 4 4 4 4 4 4 4 4 3 3 3 3 3 3 3 3 2 4 2 1 0 0 -0 -1 -1 0 1 1 1 0 -0 -1 -2 -2 -3 -3
3 3 4 4 4 4 4 4 4 4 4 4 3 4 4 4 3 3 3 3 3 3 3 2 2 2 1 2 2 -1 0 -0 -0 -1 -1 -0 0 0 -1 -2 -1 -1 -3 -4 -3
3 3 3 4 4 3 4 4 4 4 4 4 4 4 4 3 3 3 3 3 2 2 2 2 1 2 1 2 2 1 1 -0 -0 -0 -1 -1 -1 -2 -1 -1 -2 -2 -4 -4 -4
2 3 3 3 3 3 3 3 3 3 3 3 3 3 3 3 3 3 3 3 2 2 1 1 1 0 -0 1 0 1 1 0 -0 -1 -1 -1 -1 -1 -2 -3 -3 -3 -4 -4 -4
Height
3114 3116 3118 3120 3123 3125 3128 3130 3131 3134 3136 3138 3140 3142 3143 3144 3145 3146 3147 3149 3150 3152 3153 3154 3156 3158 3159 3161 3163 3165 3167 3166 3169 3172 3172 3172 3174 3172 3173 3175 3175 3174 3176 3176 3176
3110 3112 3114 3117 3120 3123 3125 3127 3130 3132 3135 3137 3140 3142 3143 3144 3146 3149 3148 3151 3152 3154 3155 3156 3158 3159 3161 3162 3164 3165 3166 3169 3169 3170 3173 3173 3173 3172 3174 3174 3175 3175 3175 3176 3175
3107 3109 3111 3114 3117 3120 3123 3125 3128 3132 3134 3138 3140 3142 3144 3145 3149 3149 3151 3152 3154 3155 3157 3158 3160 3163 3163 3163 3165 3166 3169 3169 3169 3170 3173 3172 3173 3171 3174 3175 3175 3176 3175 3174 3174
3104 3107 3110 3112 3115 3119 3122 3125 3128 3131 3135 3138 3139 3143 3145 3147 3153 3151 3153 3155 3156 3157 3159 3160 3163 3165 3164 3164 3166 3167 3166 3169 3170 3170 3171 3172 3171 3173 3173 3174 3174 3175 3176 3174 3174
3103 3105 3108 3112 3115 3118 3122 3125 3129 3132 3136 3138 3141 3144 3146 3149 3150 3151 3154 3156 3157 3159 3161 3162 3164 3165 3164 3165 3167 3169 3168 3168 3170 3169 3171 3170 3172 3174 3172 3172 3174 3174 3177 3175 3176
3102 3105 3108 3112 3115 3119 3123 3126 3130 3134 3136 3139 3142 3145 3148 3152 3150 3152 3154 3157 3158 3160 3162 3162 3163 3164 3164 3166 3168 3168 3168 3169 3169 3171 3171 3171 3171 3170 3173 3173 3174 3173 3176 3175 3175
3103 3105 3109 3112 3116 3120 3124 3128 3132 3135 3138 3140 3143 3146 3149 3151 3150 3152 3155 3157 3158 3160 3161 3162 3163 3164 3165 3166 3166 3167 3170 3169 3169 3170 3170 3170 3173 3171 3172 3172 3171 3171 3174 3174 3174
3103 3107 3110 3114 3119 3123 3127 3131 3134 3137 3139 3142 3145 3148 3150 3150 3151 3153 3155 3157 3159 3160 3162 3163 3164 3165 3165 3166 3167 3168 3169 3170 3169 3169 3168 3172 3169 3170 3168 3170 3169 3170 3171 3172 3173
3106 3109 3113 3117 3122 3126 3130 3133 3136 3138 3141 3144 3147 3149 3151 3150 3151 3152 3155 3157 3159 3161 3163 3163 3164 3164 3165 3166 3167 3166 3167 3169 3168 3167 3166 3169 3168 3167 3166 3165 3166 3166 3169 3171 3171
3109 3112 3116 3121 3124 3128 3131 3135 3138 3140 3143 3145 3148 3152 3150 3151 3151 3153 3155 3157 3159 3161 3163 3163 3164 3165 3166 3166 3164 3166 3167 3166 3167 3166 3165 3165 3166 3163 3160 3161 3161 3164 3166 3168 3168
3113 3116 3119 3123 3126 3130 3133 3136 3142 3144 3144 3145 3148 3148 3150 3151 3153 3154 3156 3158 3160 3162 3163 3163 3165 3165 3164 3163 3163 3163 3164 3164 3163 3161 3162 3163 3162 3160 3159 3159 3161 3163 3164 3164 3165
3115 3119 3122 3125 3129 3132 3135 3138 3141 3144 3145 3146 3148 3149 3150 3152 3153 3155 3157 3159 3160 3161 3162 3165 3164 3163 3163 3163 3162 3162 3162 3163 3161 3160 3161 3161 3162 3160 3159 3159 3161 3162 3162 3162 3162
3117 3120 3123 3127 3131 3134 3137 3140 3143 3144 3146 3150 3150 3151 3152 3154 3154 3155 3157 3158 3159 3160 3162 3163 3163 3162 3162 3162 3162 3161 3161 3160 3161 3159 3159 3160 3162 3160 3160 3160 3160 3160 3160 3160 3159
3118 3121 3125 3128 3134 3135 3138 3141 3144 3146 3150 3154 3153 3153 3154 3154 3155 3155 3156 3158 3158 3160 3161 3162 3162 3162 3162 3161 3161 3161 3159 3158 3157 3159 3157 3158 3155 3160 3159 3159 3159 3158 3158 3157 3158
3118 3122 3126 3130 3132 3136 3140 3142 3145 3147 3149 3154 3153 3153 3154 3155 3156 3156 3156 3157 3157 3158 3161 3161 3161 3161 3161 3160 3159 3160 3157 3156 3154 3156 3156 3157 3156 3157 3159 3159 3158 3156 3156 3156 3156
3118 3122 3126 3130 3133 3136 3139 3142 3146 3150 3149 3152 3152 3153 3155 3154 3154 3155 3156 3157 3158 3158 3158 3159 3160 3160 3160 3159 3158 3157 3155 3154 3154 3156 3155 3157 3157 3155 3157 3156 3155 3155 3154 3154 3153
3118 3122 3126 3130 3133 3136 3140 3143 3149 3146 3149 3151 3152 3153 3154 3154 3155 3155 3156 3156 3157 3160 3159 3160 3160 3159 3159 3160 3158 3158 3156 3154 3155 3154 3152 3155 3155 3153 3153 3154 3153 3152 3151 3151 3150
3118 3122 3126 3129 3133 3136 3140 3145 3145 3144 3146 3147 3150 3152 3154 3154 3155 3156 3156 3156 3156 3157 3159 3160 3161 3160 3159 3159 3159 3157 3157 3158 3156 3154 3154 3154 3151 3152 3152 3151 3151 3150 3149 3148 3146
3119 3122 3126 3129 3132 3136 3141 3143 3141 3143 3145 3147 3150 3153 3154 3155 3156 3157 3157 3157 3158 3157 3160 3160 3161 3160 3159 3159 3160 3159 3159 3159 3158 3157 3156 3152 3153 3150 3149 3149 3148 3147 3146 3145 3143
3119 3123 3126 3129 3133 3137 3140 3140 3140 3142 3145 3148 3150 3152 3154 3155 3157 3157 3158 3159 3159 3159 3159 3160 3162 3160 3159 3159 3159 3159 3159 3160 3159 3158 3154 3148 3149 3148 3147 3148 3146 3145 3143 3141 3138
3120 3123 3127 3130 3133 3137 3138 3139 3140 3142 3145 3148 3149 3150 3153 3154 3156 3157 3159 3160 3159 3159 3159 3159 3160 3161 3159 3158 3158 3159 3158 3157 3158 3158 3156 3152 3148 3146 3147 3145 3144 3142 3138 3136 3133
3120 3123 3126 3130 3134 3135 3137 3139 3141 3143 3145 3147 3149 3150 3152 3154 3155 3156 3157 3158 3159 3159 3159 3158 3157 3158 3158 3155 3155 3155 3156 3156 3156 3157 3156 3155 3148 3142 3142 3142 3139 3137 3131 3130 3127
3120 3123 3126 3129 3132 3134 3136 3138 3140 3142 3144 3146 3147 3149 3151 3153 3155 3156 3156 3157 3157 3158 3158 3157 3157 3158 3156 3156 3154 3155 3154 3154 3153 3153 3152 3152 3145 3139 3139 3138 3136 3132 3128 3125 3122
3121 3123 3126 3128 3131 3133 3135 3137 3139 3141 3143 3145 3146 3148 3150 3152 3153 3154 3155 3156 3156 3156 3156 3156 3155 3156 3156 3155 3153 3153 3152 3152 3151 3149 3146 3142 3139 3138 3138 3135 3132 3127 3122 3119 3115
3119 3122 3124 3126 3129 3132 3134 3137 3138 3140 3141 3143 3145 3147 3149 3150 3152 3153 3154 3154 3154 3154 3153 3154 3153 3152 3152 3151 3149 3147 3147 3146 3145 3142 3143 3138 3136 3135 3133 3128 3124 3121 3116 3112 3108
3118 3121 3123 3125 3128 3130 3133 3135 3137 3139 3140 3142 3144 3146 3148 3150 3151 3152 3152 3153 3152 3152 3151 3151 3151 3149 3148 3148 3145 3141 3140 3139 3137 3136 3135 3134 3132 3128 3125 3121 3118 3114 3109 3105 3099
3117 3119 3122 3123 3126 3129 3131 3133 3135 3138 3140 3142 3144 3145 3147 3148 3149 3150 3150 3150 3150 3150 3149 3150 3149 3148 3146 3144 3140 3137 3135 3135 3135 3133 3132 3130 3128 3124 3119 3115 3110 3106 3102 3096 3088
Wind_Speed
16 16 17 17 15 13 12 12 12 11 11 12 14 13 13 14 13 12 12 13 24 21 19 16 16 19 18 18 18 15 12 12 12 10 10 10 7 3 6 7 5 6 8 9 9
15 14 14 14 13 13 13 13 14 14 15 15 16 16 17 15 14 14 13 15 23 21 19 15 14 14 13 12 16 10 9 9 11 9 9 7 7 4 7 6 5 5 6 6 6
12 13 13 12 15 15 16 16 15 16 17 18 18 18 16 15 15 15 14 13 20 18 16 14 13 14 14 15 16 12 9 10 9 10 10 8 5 6 7 7 7 7 7 7 7
12 12 12 14 15 16 16 16 18 18 18 19 18 19 16 15 8 15 14 13 15 13 14 14 10 10 9 10 13 13 11 8 9 9 8 7 8 5 8 7 12 12 9 8 6
10 12 12 13 15 16 18 20 20 19 19 19 19 19 16 14 12 17 15 13 14 12 11 10 9 7 8 15 15 12 12 12 9 8 7 9 8 7 8 11 12 11 8 7 5
11 12 14 16 17 19 21 22 20 20 18 18 20 18 16 9 11 17 16 13 12 9 7 8 10 8 15 19 11 12 9 6 5 4 5 7 6 7 4 5 8 9 7 5 5
13 16 17 19 20 22 23 22 20 16 15 17 18 16 16 11 10 16 13 11 9 6 6 8 11 14 18 12 11 10 6 4 3 8 6 4 3 4 4 3 3 11 10 9 9
17 18 20 21 23 23 22 20 15 13 13 15 16 16 12 9 11 13 12 10 7 8 9 11 11 10 11 10 10 8 5 5 2 4 4 4 7 5 8 12 13 9 15 14 12
20 22 23 24 23 23 22 17 13 13 15 15 14 11 9 7 8 8 10 9 9 9 10 8 6 4 6 6 5 4 4 3 3 4 3 4 4 9 17 14 16 18 16 17 16
22 24 24 24 24 23 21 17 17 17 16 14 13 7 7 6 7 8 10 11 11 10 8 4 4 4 4 3 3 3 2 1 2 5 7 5 6 12 11 7 10 14 16 18 18
23 24 24 23 24 23 21 21 19 18 14 10 10 10 9 9 8 8 10 11 10 8 6 4 3 4 2 2 4 2 1 2 4 7 2 3 3 5 4 8 12 11 12 14 18
21 21 22 22 23 21 21 20 16 19 18 16 15 12 10 9 10 9 10 11 11 8 7 2 2 2 1 0 1 3 3 2 4 4 5 3 2 2 3 7 10 8 9 8 10
20 20 21 22 21 20 20 16 17 18 16 14 13 13 11 9 7 9 10 11 11 9 7 6 5 4 2 2 3 6 2 4 5 8 4 2 3 3 5 7 7 4 4 7 9
19 19 19 20 21 21 21 19 18 16 8 9 7 6 7 8 7 7 6 7 9 9 10 6 6 3 1 4 4 4 6 11 9 4 5 8 6 3 6 5 5 5 7 8 8
18 19 19 20 20 20 20 19 19 8 3 8 8 6 7 6 8 7 7 7 7 9 5 4 4 0 2 5 8 4 11 10 6 5 4 4 6 4 6 4 4 8 9 8 7
19 20 20 20 21 20 18 18 15 3 4 6 8 7 5 8 9 9 7 7 8 7 5 4 2 1 4 8 7 8 9 3 2 3 5 2 4 6 5 3 2 10 11 11 12
19 20 21 21 19 19 16 15 6 3 13 9 10 9 7 10 10 9 7 5 4 4 2 3 1 2 4 4 5 8 3 3 2 3 1 3 5 3 5 8 9 11 12 13 13
20 20 21 20 17 18 17 16 4 9 8 14 14 11 7 11 9 8 9 9 6 5 4 2 2 2 5 4 2 8 7 3 3 2 4 4 4 5 9 9 11 12 12 14 18
20 20 19 18 19 19 19 7 4 12 16 17 13 6 6 5 6 6 8 10 7 6 3 2 2 2 5 4 5 4 4 4 2 4 3 2 2 7 10 8 12 12 16 19 17
19 18 18 22 20 19 14 7 12 13 17 16 7 8 6 7 5 4 4 4 6 8 6 3 2 2 2 4 4 2 2 2 3 2 4 4 10 10 9 8 17 19 19 21 24
19 19 21 21 18 18 11 8 16 18 15 14 8 9 9 9 6 5 5 5 5 4 4 4 1 3 2 2 2 2 1 0 0 2 3 4 8 7 5 12 13 17 24 30 29
18 16 21 20 18 17 12 14 16 16 14 12 10 8 11 9 7 6 6 5 3 1 1 4 1 2 4 5 5 5 4 3 3 2 5 5 14 10 3 16 21 23 28 27 30
16 17 20 19 15 17 14 16 17 16 14 11 11 10 10 10 5 7 7 5 3 3 4 5 2 2 2 4 7 5 5 10 13 9 11 7 7 12 20 21 20 21 25 30 28
16 14 18 19 14 13 14 16 16 15 12 11 10 10 10 9 6 7 6 4 4 5 5 6 4 4 5 7 10 10 11 11 11 10 14 22 25 21 18 19 19 20 26 26 28
17 15 19 20 15 14 14 15 16 15 12 12 11 10 10 9 7 6 5 4 6 7 5 4 7 11 12 13 19 18 16 15 20 22 18 20 20 20 20 22 27 27 26 28 33
16 14 18 12 16 16 16 17 15 14 14 13 10 10 9 7 6 4 4 5 7 6 7 10 8 14 16 14 17 22 26 19 9 13 18 19 22 16 27 30 28 29 32 33 41
15 13 16 14 18 18 18 17 16 12 12 11 9 9 8 6 5 4 5 7 8 9 10 10 8 9 8 12 25 13 4 6 13 15 13 15 15 25 24 24 27 34 38 42 42
Wind_Direction
252 245 240 237 234 225 217 214 208 202 191 179 174 165 153 150 134 127 120 133 140 133 128 126 136 147 155 164 169 155 133 133 137 142 153 151 141 122 159 164 149 146 153 164 171
245 238 233 229 218 211 205 202 196 189 174 173 171 152 153 144 135 127 126 139 140 132 125 124 139 155 163 163 169 152 150 145 149 143 153 158 147 130 137 159 165 154 161 171 180
233 226 219 207 200 195 193 192 183 175 169 172 167 159 161 146 136 135 128 127 152 135 135 125 128 135 136 144 150 142 154 143 149 154 151 154 150 119 146 153 154 149 137 129 148
217 210 202 195 190 185 181 177 172 166 171 173 160 169 157 151 150 145 133 125 141 142 146 140 132 135 135 146 153 142 125 132 139 136 150 155 144 131 160 159 163 151 140 120 116
199 193 188 184 177 172 170 166 163 166 175 167 169 171 165 165 172 156 148 137 139 140 161 164 169 174 140 142 140 133 131 123 123 117 139 137 143 140 137 161 162 154 147 133 126
180 174 171 167 162 162 160 158 160 174 168 171 173 172 173 182 175 169 161 145 145 147 195 192 202 207 153 146 148 148 146 140 140 148 141 150 160 115 154 165 189 171 177 178 174
161 160 157 155 154 154 153 154 163 160 167 173 173 176 182 197 196 181 176 175 162 164 181 175 165 150 153 154 157 153 146 115 217 203 201 171 203 168 211 237 200 205 211 212 215
148 147 146 147 147 148 150 151 148 151 156 167 173 183 196 211 184 189 187 186 181 157 149 145 136 150 160 157 152 143 154 196 136 145 199 207 160 217 232 265 244 226 216 217 227
137 140 141 142 145 147 144 136 134 139 141 147 160 170 197 179 161 159 166 166 154 146 151 140 112 142 150 155 155 180 178 166 200 245 254 254 218 263 267 270 237 231 227 220 223
136 138 141 145 146 142 135 135 136 131 131 135 142 137 155 141 143 148 153 150 147 149 154 138 173 107 101 192 192 181 197 230 240 271 266 281 279 279 283 228 205 215 213 217 226
142 145 146 146 145 143 144 141 135 130 134 150 156 148 138 129 135 150 158 154 156 166 175 193 136 142 159 144 170 202 265 282 286 282 285 262 309 279 266 179 182 196 213 226 234
144 144 144 146 150 152 149 138 136 135 124 126 129 126 125 126 135 157 167 175 188 197 215 202 162 188 136 163 20 348 307 307 299 259 316 297 229 208 132 167 184 204 218 224 213
148 148 149 152 155 153 144 138 138 138 114 116 120 118 111 114 137 150 169 189 195 213 198 187 165 154 123 10 343 310 262 316 287 298 273 201 169 172 169 140 137 150 179 186 179
148 145 149 151 154 152 151 147 147 130 109 123 116 102 140 126 108 128 145 169 177 176 146 141 155 134 344 322 331 312 289 310 301 275 235 191 174 149 169 170 171 180 188 184 189
156 156 157 158 157 162 161 159 160 146 140 127 122 131 127 158 129 101 117 141 163 159 122 150 151 328 12 324 341 298 320 315 298 224 217 210 251 147 147 152 175 203 206 214 230
164 162 163 162 161 164 167 168 175 170 139 141 142 119 126 114 115 108 105 117 116 126 130 145 178 293 329 330 338 333 336 328 80 158 212 197 289 157 205 204 161 212 215 225 241
168 164 164 163 163 165 161 165 177 228 162 147 148 139 136 106 99 110 117 147 150 139 109 116 290 323 344 4 2 358 344 235 213 205 53 199 283 91 187 201 206 208 219 241 271
168 165 164 167 165 164 167 166 206 167 154 158 151 143 134 116 90 103 100 84 89 117 108 87 149 20 341 17 8 20 47 39 322 330 316 287 229 185 213 223 223 224 245 270 296
163 165 167 169 164 163 163 190 172 158 158 155 150 141 127 116 122 100 102 83 76 89 103 67 108 349 11 30 30 344 56 42 60 359 268 255 255 268 235 241 244 258 290 309 310
160 162 162 158 162 162 172 184 161 164 159 158 156 160 146 145 124 120 116 105 74 68 71 63 160 258 330 345 354 83 57 3 8 332 301 297 281 281 223 238 263 282 303 314 312
159 163 163 163 165 171 183 174 161 161 166 171 178 167 167 162 153 136 143 132 92 70 49 45 109 273 312 272 256 277 260 179 209 214 276 298 306 270 255 285 302 310 297 306 307
157 164 167 172 174 182 189 173 169 172 180 186 187 179 173 174 163 155 163 161 150 42 357 347 223 227 249 266 233 227 235 239 274 253 237 281 279 280 307 311 308 303 298 303 305
164 167 170 174 184 188 182 179 178 179 184 184 184 184 176 174 155 163 170 185 225 322 326 342 298 279 281 288 269 249 256 271 284 259 248 252 272 302 317 318 310 294 298 301 294
176 172 180 185 189 195 191 185 182 181 184 185 187 177 175 171 173 179 187 222 265 298 304 311 281 248 284 298 285 273 282 273 260 254 266 264 285 297 306 309 305 298 306 301 299
188 192 186 194 194 191 194 190 186 175 181 181 177 179 180 177 182 193 228 260 281 287 286 289 290 294 292 293 293 286 288 277 263 265 265 282 288 301 305 310 312 310 306 304 306
192 198 196 199 193 187 187 186 186 184 176 183 186 184 189 198 205 207 237 265 270 266 269 295 289 307 310 312 301 299 302 282 268 264 258 280 292 288 310 311 309 314 308 304 313
195 198 193 195 188 185 193 188 183 183 180 184 188 197 198 206 198 212 238 248 252 258 282 298 299 303 285 312 311 312 97 322 305 292 294 292 295 301 311 310 309 313 312 307 309